Weather in Otradny

Russia / Penza Oblast     53°15′31″N   44°17′33″E
temp.,
°C
wind,
m/s
gust,
m/s
humid.,
%
clouds,
%
prec.,
mm/h
press.,
hPa
HPBL,
m
7 march, sun
sun700:00−10nw239798 0.6 101449
03:00−14nw349794 0.7 101467
06:00−16wsw349748 0.0 101550
09:00−13sw589568 0.1 1014239
12:00−8sw7129089 0.0 1011570
15:00−6sw9159194 0.1 1007912
18:00−5sw111893100 1.1 10041120
21:00−5sw111893100 2.3 10001042
8 march, mon
mon800:00−3sw101794100 1.0 9961032
03:00−4w91588100 1.7 997989
06:00−8wsw7158967 0.1 1000467
09:00−8wsw6138933 0.1 1002484
12:00−5wsw6108740 0.0 1002899
15:00−3wsw7118770 0.4 10021291
18:00−6wsw41091100 0.4 1002290
21:00−9w5129283 0.4 1005303
9 march, tue
tue900:00−13w479530 0.0 1007117
03:00−16wnw349836 0.0 100946
06:00−17wnw339873 0.0 101126
09:00−14wnw359679 0.0 1012194
12:00−11wnw359394 0.0 1012322
15:00−10nw469197 0.1 1013517
18:00−12nw3396100 0.1 101351
21:00−13nw499699 0.3 1016252
10 march, wed
wed1000:00−15nw369794 0.1 1017145
03:00−20nw3410092 0.1 101866
06:00−22nw4610098 0.0 1020112
09:00−21nw489899 0.1 1022259
12:00−18nw4693100 0.0 1023488
15:00−18nw5890100 0.1 1023594
18:00−21nnw3497100 0.0 102556
21:00−23nnw33100100 0.1 102733
11 march, thu
thu1100:00−25nw3310079 0.0 102824
03:00−26nw339940 0.0 102924
06:00−26wnw34970 0.0 103036
09:00−22wnw47880 0.0 1030201
12:00−16wnw46870 0.0 1030302
15:00−14w47880 0.0 1030308
18:00−18w34930 0.0 103043
21:00−20wsw34920 0.0 103143